Flag for Brazil Weather past 2 weeks in Campo Grande, Mato Grosso Do Sul, Brazil

70 °F


Feels Like: 70 °F
Forecast: 70 / 82 °F
Wind: 8 mph from North

Location: Campo Grande Aeroporto

Current Time: Nov 29, 2015 at 3:10:26 AM

Latest Report: Nov 29, 2015 at 2:00 AM

Visibility: 10 mi

Pressure: 29.89 "Hg (28.15 "Hg at 516m altitude)

Humidity: 88%

Dew point: 66 °F

Location of Campo GrandeLocation

Historic Weather in Campo Grande — Graph


Campo Grande temperature yesterday

Maximum temperature yesterday: 82 °F (at 10:00 AM)
Minimum temperature yesterday: 32 °F (at 8:00 PM)
Average temperature yesterday: 71 °F

Past Weeks' High & Low Weather Summary

High91 °F (Nov 14, 1:00 PM)100% (Nov 18, 3:00 PM)30.01 "Hg (Nov 18, 3:00 PM)
Low32 °F (Nov 28, 8:00 PM)25% (Nov 25, 12:00 PM)29.65 "Hg (Nov 19, 7:00 PM)
Average78 °F72%29.83 "Hg
* Reported Nov 14 2:00 AM — Nov 29 2:00 AM, Campo Grande, Weather by CustomWeather, © 2015

Note: Actual official high and low records may vary slightly from our data, if they occured in-between our weather recording intervals... More about our weather records


Campo Grande weather history for previous 24 hours

Time TempWeatherWind HumidityBarometerVisibility
2:00 AM
Sun, Nov 29
70 °FClear.8 mph88%29.89 "Hg10 mi
1:00 AM70 °FPassing clouds.9 mph88%29.89 "HgN/A
12:00 AM70 °FPassing clouds.12 mph88%29.92 "HgN/A
11:00 PM
Sat, Nov 28
70 °FPassing clouds.8 mph88%29.92 "HgN/A
10:00 PM70 °FPassing clouds.10 mph88%29.89 "HgN/A
9:00 PM68 °FPassing clouds.10 mph94%29.89 "HgN/A
8:00 PM32 °FThundershowers. Partly cloudy.8 mph100%29.86 "HgN/A
7:00 PM68 °FThundershowers. Scattered clouds.7 mph94%N/AN/A
6:00 PM68 °FThunderstorms. Scattered clouds.12 mph94%N/A3 mi
5:00 PM68 °FThunderstorms. Broken clouds.13 mph94%29.89 "HgN/A
4:00 PM68 °FThunderstorms. Broken clouds.13 mph94%29.83 "HgN/A
3:00 PM70 °FThunderstorms. Broken clouds.22 mph88%29.86 "Hg5 mi
2:00 PM46 °FThundershowers. Scattered clouds.8 mph100%29.83 "HgN/A
1:00 PM77 °FThunderstorms. Broken clouds.9 mph83%29.89 "HgN/A
12:00 PM68 °FStrong thunderstorms. Partly sunny.18 mph94%29.89 "Hg1 mi
11:00 AM82 °FScattered showers. Partly sunny.18 mph66%29.89 "HgN/A
10:00 AM82 °FScattered showers. Scattered clouds.21 mph66%29.89 "HgN/A
9:00 AM81 °FScattered clouds.18 mph66%29.86 "HgN/A
8:00 AM79 °FScattered clouds.16 mph70%29.86 "HgN/A
7:00 AM77 °FScattered clouds.8 mph74%29.83 "HgN/A
6:00 AM75 °FSunny.7 mph78%29.80 "Hg10 mi
5:00 AM75 °FClear.6 mph78%29.80 "Hg10 mi
4:00 AM75 °FClear.7 mph78%29.80 "Hg10 mi
3:00 AM77 °FClear.7 mph74%29.83 "Hg10 mi
Weather by CustomWeather, © 2015

See weather overviewHow to use our weather pages